• In Portugal
  • List of Countries
  • For 7 days
  • Water Temperature
  • Satellite Maps
  • Weather Map
  • Weather Widgets
  • user-avatar
    Login

    Hourly Weather Potosi

    Today, 24 September, Monday

    Time Temperature Precipitation Wind Pressure Humidity
    00:00 +10°C° 0 mm 1 mps 468 mmHg 48%
    01:00 +9°C° 0 mm 1 mps 468 mmHg 51%
    02:00 +8°C° 0 mm 1 mps 467 mmHg 58%
    03:00 +8°C° 0 mm 1 mps 467 mmHg 59%
    04:00 +8°C° 0 mm 1 mps 467 mmHg 61%
    05:00 +7°C° 0 mm 1 mps 466 mmHg 63%
    06:00 +8°C° 0 mm 1 mps 467 mmHg 58%
    07:00 +8°C° 0 mm 1 mps 468 mmHg 54%
    08:00 +9°C° 0 mm 1 mps 468 mmHg 50%
    09:00 +10°C° 0 mm 2 mps 469 mmHg 43%
    10:00 +11°C° 0 mm 3 mps 470 mmHg 36%
    11:00 +12°C° 0 mm 4 mps 471 mmHg 30%
    12:00 +13°C° 0 mm 5 mps 471 mmHg 29%
    13:00 +14°C° 0 mm 6 mps 471 mmHg 29%
    14:00 +13°C° 0 mm 8 mps 471 mmHg 28%
    15:00 +12°C° 0.6 mm 8 mps 470 mmHg 35%
    16:00 +10°C° 0.6 mm 7 mps 468 mmHg 41%
    17:00 +9°C° 0.6 mm 7 mps 467 mmHg 48%
    18:00 +8°C° 1.5 mm 6 mps 467 mmHg 55%
    19:00 +7°C° 1.5 mm 5 mps 467 mmHg 62%
    20:00 +7°C° 1.5 mm 3 mps 466 mmHg 68%
    21:00 +7°C° 0.5 mm 3 mps 467 mmHg 69%
    22:00 +7°C° 0.5 mm 2 mps 467 mmHg 70%
    23:00 +7°C° 0.5 mm 2 mps 467 mmHg 71%

    Tomorrow, 25 September, Tuesday

    Time Temperature Precipitation Wind Pressure Humidity
    00:00 +7°C° 1 mm 2 mps 467 mmHg 69%
    01:00 +7°C° 1 mm 2 mps 467 mmHg 67%
    02:00 +7°C° 1 mm 2 mps 467 mmHg 65%
    03:00 +7°C° 0.4 mm 2 mps 467 mmHg 66%
    04:00 +6°C° 0.4 mm 2 mps 467 mmHg 66%
    05:00 +7°C° 0.4 mm 1 mps 466 mmHg 67%
    06:00 +8°C° 0.1 mm 1 mps 467 mmHg 64%
    07:00 +7°C° 0.1 mm 2 mps 467 mmHg 61%
    08:00 +7°C° 0.1 mm 2 mps 468 mmHg 59%
    09:00 +9°C° 0 mm 2 mps 469 mmHg 49%
    10:00 +10°C° 0 mm 2 mps 470 mmHg 40%
    11:00 +13°C° 0 mm 2 mps 470 mmHg 30%
    12:00 +13°C° 0 mm 3 mps 470 mmHg 27%
    13:00 +13°C° 0 mm 3 mps 470 mmHg 24%
    14:00 +14°C° 0 mm 4 mps 470 mmHg 21%
    15:00 +14°C° 0.5 mm 4 mps 469 mmHg 25%
    16:00 +13°C° 0.5 mm 5 mps 469 mmHg 28%
    17:00 +13°C° 0.5 mm 5 mps 468 mmHg 31%
    18:00 +12°C° 0.9 mm 4 mps 468 mmHg 35%
    19:00 +11°C° 0.9 mm 4 mps 468 mmHg 39%
    20:00 +10°C° 0.9 mm 3 mps 468 mmHg 43%
    21:00 +9°C° 0.3 mm 3 mps 468 mmHg 47%
    22:00 +8°C° 0.3 mm 2 mps 468 mmHg 52%
    23:00 +8°C° 0.3 mm 2 mps 468 mmHg 56%

    Day after tomorrow, 26 September, Wednesday

    Time Temperature Precipitation Wind Pressure Humidity
    00:00 +7°C° 0 mm 2 mps 467 mmHg 58%
    01:00 +7°C° 0 mm 2 mps 467 mmHg 61%
    02:00 +7°C° 0 mm 1 mps 466 mmHg 63%
    03:00 +7°C° 0 mm 1 mps 466 mmHg 62%
    04:00 +7°C° 0 mm 1 mps 466 mmHg 60%
    05:00 +6°C° 0 mm 1 mps 465 mmHg 59%
    06:00 +7°C° 0 mm 1 mps 466 mmHg 51%
    07:00 +8°C° 0 mm 1 mps 467 mmHg 42%
    08:00 +9°C° 0 mm 1 mps 468 mmHg 34%
    09:00 +10°C° 0 mm 1 mps 469 mmHg 27%
    10:00 +12°C° 0 mm 2 mps 470 mmHg 20%
    11:00 +13°C° 0 mm 2 mps 471 mmHg 13%
    12:00 +13°C° 0 mm 3 mps 471 mmHg 12%
    13:00 +14°C° 0 mm 3 mps 471 mmHg 11%
    14:00 +16°C° 0 mm 3 mps 471 mmHg 10%
    15:00 +14°C° 0 mm 4 mps 470 mmHg 12%
    16:00 +14°C° 0 mm 5 mps 470 mmHg 14%
    17:00 +14°C° 0 mm 6 mps 469 mmHg 16%
    18:00 +12°C° 0.4 mm 5 mps 469 mmHg 25%
    19:00 +10°C° 0.4 mm 5 mps 468 mmHg 35%
    20:00 +8°C° 0.4 mm 4 mps 468 mmHg 44%
    21:00 +8°C° 0.2 mm 4 mps 468 mmHg 50%
    22:00 +8°C° 0.2 mm 3 mps 468 mmHg 55%
    23:00 +8°C° 0.2 mm 3 mps 468 mmHg 60%

    27 September, Thursday

    Time Temperature Precipitation Wind Pressure Humidity
    00:00 +7°C° 0 mm 2 mps 467 mmHg 63%
    01:00 +7°C° 0 mm 2 mps 467 mmHg 65%
    02:00 +7°C° 0 mm 2 mps 467 mmHg 67%
    03:00 +7°C° 0 mm 1 mps 466 mmHg 69%
    04:00 +7°C° 0 mm 1 mps 466 mmHg 70%
    05:00 +7°C° 0 mm 1 mps 466 mmHg 72%
    06:00 +7°C° 0 mm 1 mps 467 mmHg 66%
    07:00 +8°C° 0 mm 1 mps 467 mmHg 61%
    08:00 +9°C° 0 mm 1 mps 468 mmHg 55%
    09:00 +9°C° 0 mm 2 mps 469 mmHg 46%
    10:00 +10°C° 0 mm 2 mps 470 mmHg 37%
    11:00 +12°C° 0 mm 3 mps 471 mmHg 28%
    12:00 +13°C° 0 mm 3 mps 471 mmHg 26%
    13:00 +13°C° 0 mm 4 mps 470 mmHg 24%
    14:00 +14°C° 0 mm 4 mps 470 mmHg 22%
    15:00 +13°C° 0.7 mm 5 mps 469 mmHg 26%
    16:00 +12°C° 0.7 mm 5 mps 469 mmHg 31%
    17:00 +12°C° 0.7 mm 5 mps 468 mmHg 35%
    18:00 +10°C° 0.9 mm 5 mps 468 mmHg 40%
    19:00 +10°C° 0.9 mm 4 mps 468 mmHg 45%
    20:00 +8°C° 0.9 mm 4 mps 468 mmHg 50%
    21:00 +7°C° 0.1 mm 4 mps 468 mmHg 54%
    22:00 +8°C° 0.1 mm 3 mps 468 mmHg 58%
    23:00 +7°C° 0.1 mm 2 mps 468 mmHg 62%

    28 September, Friday

    Time Temperature Precipitation Wind Pressure Humidity
    00:00 +7°C° 0 mm 2 mps 468 mmHg 63%
    01:00 +7°C° 0 mm 2 mps 467 mmHg 65%
    02:00 +6°C° 0 mm 2 mps 467 mmHg 67%
    03:00 +6°C° 0 mm 2 mps 467 mmHg 67%
    04:00 +6°C° 0 mm 2 mps 466 mmHg 68%
    05:00 +6°C° 0 mm 1 mps 466 mmHg 68%
    06:00 +7°C° 0 mm 1 mps 467 mmHg 62%
    07:00 +8°C° 0 mm 1 mps 468 mmHg 56%
    08:00 +9°C° 0 mm 1 mps 469 mmHg 50%
    09:00 +10°C° 0 mm 1 mps 470 mmHg 42%
    10:00 +12°C° 0 mm 2 mps 471 mmHg 34%
    11:00 +13°C° 0 mm 2 mps 471 mmHg 26%
    12:00 +14°C° 0 mm 2 mps 471 mmHg 25%
    13:00 +13°C° 0 mm 3 mps 471 mmHg 25%
    14:00 +14°C° 0 mm 4 mps 471 mmHg 25%
    15:00 +13°C° 1.7 mm 4 mps 470 mmHg 30%
    16:00 +12°C° 1.7 mm 4 mps 469 mmHg 35%
    17:00 +11°C° 1.7 mm 4 mps 468 mmHg 41%
    18:00 +11°C° 0.9 mm 4 mps 468 mmHg 44%
    19:00 +10°C° 0.9 mm 4 mps 468 mmHg 47%
    20:00 +8°C° 0.9 mm 4 mps 468 mmHg 50%
    21:00 +8°C° 0.1 mm 3 mps 468 mmHg 54%
    22:00 +8°C° 0.1 mm 3 mps 468 mmHg 58%
    23:00 +7°C° 0.1 mm 2 mps 468 mmHg 62%

    29 September, Saturday

    Time Temperature Precipitation Wind Pressure Humidity
    00:00 +7°C° 0 mm 2 mps 468 mmHg 64%
    01:00 +7°C° 0 mm 2 mps 467 mmHg 65%
    02:00 +6°C° 0 mm 2 mps 467 mmHg 66%
    03:00 +6°C° 0 mm 2 mps 467 mmHg 64%
    04:00 +6°C° 0 mm 2 mps 466 mmHg 63%
    05:00 +5°C° 0 mm 2 mps 466 mmHg 62%
    06:00 +7°C° 0 mm 1 mps 467 mmHg 52%
    07:00 +9°C° 0 mm 1 mps 468 mmHg 43%
    08:00 +10°C° 0 mm 1 mps 470 mmHg 33%
    09:00 +11°C° 0 mm 1 mps 470 mmHg 26%
    10:00 +13°C° 0 mm 1 mps 471 mmHg 19%
    11:00 +14°C° 0 mm 1 mps 472 mmHg 12%
    12:00 +15°C° 0 mm 2 mps 472 mmHg 11%
    13:00 +16°C° 0 mm 2 mps 472 mmHg 10%
    14:00 +17°C° 0 mm 3 mps 472 mmHg 9%
    15:00 +17°C° 0 mm 4 mps 471 mmHg 11%
    16:00 +16°C° 0 mm 5 mps 471 mmHg 13%
    17:00 +16°C° 0 mm 6 mps 471 mmHg 15%
    18:00 +14°C° 0 mm 5 mps 470 mmHg 23%
    19:00 +13°C° 0 mm 5 mps 470 mmHg 30%
    20:00 +10°C° 0 mm 5 mps 469 mmHg 38%
    21:00 +11°C° 0 mm 4 mps 469 mmHg 43%
    22:00 +10°C° 0 mm 3 mps 469 mmHg 47%
    23:00 +9°C° 0 mm 3 mps 469 mmHg 52%
    Show more